When you browse on this site, cookies collect data to enhance your experience and personalize the content and advertising you see.
Visit our Privacy Policy to learn more. By continuing to use the site, you agree to this use of cookies and data.
  • In Hungary
  • List of Countries
  • For 7 days
  • Water Temperature
  • Satellite Maps
  • Weather Map
  • News
  • Weather Widgets
  • user-avatar
    Login

    Hourly Weather Resistencia

    Today, 20 July, Saturday

    Time Temperature Precipitation Wind Pressure Humidity
    00:00 +19°C° 0 mm 2 mps 756 mmHg 92%
    01:00 +19°C° 0 mm 2 mps 756 mmHg 94%
    02:00 +18°C° 0 mm 2 mps 756 mmHg 96%
    03:00 +18°C° 0 mm 3 mps 755 mmHg 95%
    04:00 +18°C° 0 mm 3 mps 755 mmHg 95%
    05:00 +18°C° 0 mm 3 mps 755 mmHg 95%
    06:00 +18°C° 0 mm 3 mps 755 mmHg 92%
    07:00 +18°C° 0 mm 4 mps 755 mmHg 88%
    08:00 +19°C° 0 mm 4 mps 755 mmHg 85%
    09:00 +20°C° 0 mm 4 mps 755 mmHg 80%
    10:00 +21°C° 0 mm 3 mps 755 mmHg 75%
    11:00 +22°C° 0 mm 3 mps 755 mmHg 70%
    12:00 +24°C° 0 mm 3 mps 754 mmHg 67%
    13:00 +26°C° 0 mm 4 mps 753 mmHg 64%
    14:00 +27°C° 0 mm 4 mps 752 mmHg 61%
    15:00 +27°C° 0 mm 4 mps 751 mmHg 63%
    16:00 +26°C° 0 mm 4 mps 751 mmHg 65%
    17:00 +26°C° 0 mm 4 mps 751 mmHg 67%
    18:00 +25°C° 0 mm 4 mps 751 mmHg 69%
    19:00 +25°C° 0 mm 4 mps 751 mmHg 71%
    20:00 +23°C° 0 mm 4 mps 751 mmHg 72%
    21:00 +23°C° 0 mm 5 mps 751 mmHg 72%
    22:00 +23°C° 0 mm 5 mps 751 mmHg 71%
    23:00 +23°C° 0 mm 5 mps 750 mmHg 70%

    Tomorrow, 21 July, Sunday

    Time Temperature Precipitation Wind Pressure Humidity
    00:00 +23°C° 0 mm 5 mps 750 mmHg 68%
    01:00 +23°C° 0 mm 6 mps 750 mmHg 67%
    02:00 +23°C° 0 mm 6 mps 749 mmHg 65%
    03:00 +23°C° 0 mm 6 mps 749 mmHg 64%
    04:00 +23°C° 0 mm 6 mps 749 mmHg 63%
    05:00 +23°C° 0 mm 6 mps 748 mmHg 62%
    06:00 +23°C° 0 mm 6 mps 748 mmHg 61%
    07:00 +23°C° 0 mm 6 mps 748 mmHg 59%
    08:00 +23°C° 0 mm 6 mps 749 mmHg 58%
    09:00 +26°C° 0 mm 7 mps 749 mmHg 53%
    10:00 +28°C° 0 mm 8 mps 748 mmHg 48%
    11:00 +31°C° 0 mm 8 mps 748 mmHg 43%
    12:00 +31°C° 0 mm 8 mps 747 mmHg 42%
    13:00 +32°C° 0 mm 8 mps 747 mmHg 41%
    14:00 +33°C° 0 mm 7 mps 746 mmHg 40%
    15:00 +32°C° 0 mm 6 mps 746 mmHg 44%
    16:00 +30°C° 0 mm 5 mps 746 mmHg 48%
    17:00 +28°C° 0 mm 4 mps 746 mmHg 52%
    18:00 +28°C° 0 mm 4 mps 746 mmHg 53%
    19:00 +27°C° 0 mm 4 mps 746 mmHg 54%
    20:00 +26°C° 0 mm 5 mps 746 mmHg 55%
    21:00 +26°C° 0 mm 5 mps 747 mmHg 55%
    22:00 +26°C° 0 mm 5 mps 747 mmHg 55%
    23:00 +25°C° 0 mm 5 mps 747 mmHg 55%

    Day after tomorrow, 22 July, Monday

    Time Temperature Precipitation Wind Pressure Humidity
    00:00 +25°C° 0 mm 4 mps 747 mmHg 54%
    01:00 +25°C° 0 mm 4 mps 747 mmHg 54%
    02:00 +25°C° 0 mm 4 mps 747 mmHg 53%
    03:00 +23°C° 0 mm 4 mps 747 mmHg 53%
    04:00 +24°C° 0 mm 3 mps 747 mmHg 53%
    05:00 +24°C° 0 mm 3 mps 748 mmHg 53%
    06:00 +24°C° 0 mm 2 mps 748 mmHg 55%
    07:00 +24°C° 0 mm 2 mps 749 mmHg 57%
    08:00 +24°C° 0 mm 1 mps 750 mmHg 60%
    09:00 +25°C° 0 mm 1 mps 751 mmHg 57%
    10:00 +26°C° 0 mm 1 mps 751 mmHg 55%
    11:00 +27°C° 0 mm 1 mps 751 mmHg 53%
    12:00 +26°C° 0 mm 3 mps 751 mmHg 59%
    13:00 +25°C° 0 mm 4 mps 751 mmHg 64%
    14:00 +23°C° 0 mm 5 mps 751 mmHg 69%
    15:00 +21°C° 0 mm 5 mps 751 mmHg 74%
    16:00 +19°C° 0 mm 5 mps 752 mmHg 79%
    17:00 +15°C° 0 mm 6 mps 752 mmHg 84%
    18:00 +14°C° 0.7 mm 6 mps 753 mmHg 86%
    19:00 +14°C° 0.7 mm 6 mps 754 mmHg 88%
    20:00 +13°C° 0.7 mm 6 mps 754 mmHg 90%
    21:00 +13°C° 0.4 mm 5 mps 755 mmHg 91%
    22:00 +13°C° 0.4 mm 4 mps 755 mmHg 91%
    23:00 +13°C° 0.4 mm 4 mps 755 mmHg 91%

    23 July, Tuesday

    Time Temperature Precipitation Wind Pressure Humidity
    00:00 +13°C° 0.5 mm 4 mps 755 mmHg 92%
    01:00 +12°C° 0.5 mm 4 mps 755 mmHg 92%
    02:00 +12°C° 0.5 mm 4 mps 755 mmHg 93%
    03:00 +12°C° 0 mm 4 mps 755 mmHg 93%
    04:00 +12°C° 0 mm 4 mps 756 mmHg 92%
    05:00 +11°C° 0 mm 4 mps 756 mmHg 92%
    06:00 +11°C° 0.4 mm 4 mps 756 mmHg 92%
    07:00 +10°C° 0.4 mm 5 mps 757 mmHg 92%
    08:00 +9°C° 0.4 mm 5 mps 757 mmHg 92%
    09:00 +10°C° 0.2 mm 4 mps 758 mmHg 91%
    10:00 +10°C° 0.2 mm 4 mps 758 mmHg 91%
    11:00 +10°C° 0.2 mm 3 mps 759 mmHg 91%
    12:00 +10°C° 0.2 mm 3 mps 759 mmHg 90%
    13:00 +11°C° 0.2 mm 4 mps 759 mmHg 90%
    14:00 +11°C° 0.2 mm 4 mps 759 mmHg 89%
    15:00 +10°C° 0.1 mm 4 mps 759 mmHg 89%
    16:00 +10°C° 0.1 mm 4 mps 759 mmHg 90%
    17:00 +10°C° 0.1 mm 4 mps 760 mmHg 90%
    18:00 +10°C° 0 mm 4 mps 760 mmHg 89%
    19:00 +10°C° 0 mm 4 mps 761 mmHg 88%
    20:00 +9°C° 0 mm 3 mps 762 mmHg 87%
    21:00 +9°C° 0.1 mm 3 mps 762 mmHg 86%
    22:00 +8°C° 0.1 mm 4 mps 762 mmHg 85%
    23:00 +8°C° 0.1 mm 4 mps 762 mmHg 84%

    24 July, Wednesday

    Time Temperature Precipitation Wind Pressure Humidity
    00:00 +8°C° 0 mm 4 mps 762 mmHg 82%
    01:00 +8°C° 0 mm 4 mps 763 mmHg 79%
    02:00 +8°C° 0 mm 4 mps 763 mmHg 77%
    03:00 +8°C° 0.2 mm 4 mps 763 mmHg 79%
    04:00 +8°C° 0.2 mm 4 mps 763 mmHg 81%
    05:00 +8°C° 0.2 mm 4 mps 763 mmHg 83%
    06:00 +8°C° 0.1 mm 4 mps 763 mmHg 83%
    07:00 +8°C° 0.1 mm 4 mps 764 mmHg 83%
    08:00 +8°C° 0.1 mm 4 mps 764 mmHg 83%
    09:00 +8°C° 1.1 mm 4 mps 765 mmHg 85%
    10:00 +8°C° 1.1 mm 4 mps 765 mmHg 86%
    11:00 +8°C° 1.1 mm 4 mps 766 mmHg 88%
    12:00 +7°C° 0.8 mm 4 mps 765 mmHg 88%
    13:00 +7°C° 0.8 mm 4 mps 765 mmHg 88%
    14:00 +7°C° 0.8 mm 5 mps 765 mmHg 88%
    15:00 +7°C° 0.6 mm 4 mps 765 mmHg 89%
    16:00 +7°C° 0.6 mm 4 mps 765 mmHg 89%
    17:00 +7°C° 0.6 mm 4 mps 766 mmHg 89%
    18:00 +8°C° 0.4 mm 3 mps 766 mmHg 88%
    19:00 +8°C° 0.4 mm 3 mps 766 mmHg 87%
    20:00 +8°C° 0.4 mm 3 mps 766 mmHg 86%
    21:00 +8°C° 0 mm 3 mps 766 mmHg 85%
    22:00 +8°C° 0 mm 3 mps 766 mmHg 84%
    23:00 +8°C° 0 mm 3 mps 766 mmHg 84%

    25 July, Thursday

    Time Temperature Precipitation Wind Pressure Humidity
    00:00 +8°C° 0 mm 3 mps 766 mmHg 84%
    01:00 +8°C° 0 mm 3 mps 765 mmHg 84%
    02:00 +8°C° 0 mm 2 mps 765 mmHg 84%
    03:00 +8°C° 0 mm 2 mps 765 mmHg 85%
    04:00 +8°C° 0 mm 3 mps 765 mmHg 86%
    05:00 +8°C° 0 mm 3 mps 765 mmHg 87%
    06:00 +8°C° 0.1 mm 3 mps 765 mmHg 87%
    07:00 +8°C° 0.1 mm 3 mps 765 mmHg 88%
    08:00 +8°C° 0.1 mm 3 mps 765 mmHg 88%
    09:00 +9°C° 0 mm 3 mps 765 mmHg 86%
    10:00 +10°C° 0 mm 3 mps 765 mmHg 84%
    11:00 +11°C° 0 mm 3 mps 765 mmHg 82%
    12:00 +11°C° 0 mm 3 mps 765 mmHg 81%
    13:00 +11°C° 0 mm 3 mps 764 mmHg 80%
    14:00 +12°C° 0 mm 3 mps 764 mmHg 79%
    15:00 +11°C° 0 mm 3 mps 764 mmHg 80%
    16:00 +12°C° 0 mm 2 mps 764 mmHg 81%
    17:00 +12°C° 0 mm 2 mps 764 mmHg 82%
    18:00 +10°C° 0 mm 2 mps 764 mmHg 85%
    19:00 +9°C° 0 mm 2 mps 764 mmHg 88%
    20:00 +9°C° 0 mm 2 mps 764 mmHg 90%
    21:00 +8°C° 0 mm 2 mps 764 mmHg 92%
    22:00 +9°C° 0 mm 1 mps 764 mmHg 93%
    23:00 +8°C° 0 mm 1 mps 764 mmHg 95%
    Show more